weather.gov     
National Weather Service

Terminal Aerodrome Forecast
NWS Homepage
This page is being discontinued on March 12, 2014.
The same data is available at this site. Please update your bookmarks.
Thank you, and we apologize for the inconvenience.
Please send an email to SR-SRH.Webmaster@noaa.gov with any concerns.


Current Version
Previous Version:    01  02  03  04  05  06  07  08  09  10  11  12  13  14  
[Printable]
395
FTUS41 KGYX 010500
TAFRKD
TAF
KRKD 010526Z 0106/0206 VRB03KT P6SM SCT100
     FM010900 00000KT 1SM BR SCT002 SCT120
     FM011200 16005KT P6SM SCT120
     FM011800 18009KT P6SM SCT045 SCT080
     FM020000 VRB03KT P6SM SCT120 BKN200
      AMD LTD TO CLD VIS AND WIND=


U.S. Dept. of Commerce
NOAA National Weather Service
1325 East West Highway
Silver Spring, MD 20910
E-mail: w-nws.webmaster@noaa.gov
Page last modified: May 16, 2007
NATIONAL WEATHER SERVICE: for Safety, for Work, for Fun - FOR LIFE